Regional Weather Roundup
Issued by NWS

Home | Current Version | Previous Version | Graphics & Text | Print | Product List | Glossary On
Versions: 1 2 3 4 5 6 7 8 9 10 11 12 13 14 15 16 17 18 19 20 21 22 23 24 25 26 27 28 29 30 31 32 33 34 35 36 37 38 39 40 41 42 43 44 45 46 47 48 49 50
000
ASUS43 KMKX 300311
RWRWI

WISCONSIN REGIONAL WEATHER ROUNDUP
NATIONAL WEATHER SERVICE MILWAUKEE/SULLIVAN WI
1000 PM CDT WED OCT 29 2014

NOTE: "FAIR" INDICATES FEW OR NO CLOUDS BELOW 12,000 FEET WITH NO
SIGNIFICANT WEATHER AND/OR OBSTRUCTIONS TO VISIBILITY.

WIZ001-002-006>008-014>016-023>028-300400-
NORTHWEST WISCONSIN

CITY           SKY/WX    TMP DP  RH WIND       PRES   REMARKS
SUPERIOR ARPT  CLOUDY    40  33  77 SW8       30.09R WCI  34
ASHLAND        CLOUDY    41  34  76 SW5       30.09R
HAYWARD        CLOUDY    39  32  76 SW5       30.08S
SIREN          CLOUDY    38  32  77 CALM      30.09S
CUMBERLAND     MOCLDY    36  32  87 W5        30.08F WCI  32
RICE LAKE      PTCLDY    37  32  81 CALM      30.11S
CHETEK         PTCLDY    34  31  89 CALM      30.09F
LADYSMITH      CLOUDY    40  34  77 CALM      30.10S
EAU CLAIRE     PTCLDY    35  30  82 CALM      30.10R
MENOMONIE      MOCLDY    37  32  83 CALM      30.10S
NEW RICHMOND   MOCLDY    34  32  94 CALM      30.10S
OSCEOLA        MOCLDY    37  32  84 CALM      30.12F
$$

WIZ003>005-009-010-017-018-300400-
NORTH CENTRAL WISCONSIN

CITY           SKY/WX    TMP DP  RH WIND       PRES   REMARKS
MANITOWISH WTR CLOUDY    37  32  84 SW5       30.06S WCI  33
ARBOR VITAE    CLOUDY    39  33  78 CALM      30.06S
WOODRUFF       CLOUDY    39  33  78 CALM      30.06S
RHINELANDER    CLOUDY    39  32  76 W3        30.07S
EAGLE RIVER    CLOUDY    38  32  78 CALM      30.06S
LAND O LAKES   CLOUDY    37  35  91 CALM      30.06S
PHILLIPS       CLOUDY    37  32  82 CALM      30.08R
TOMAHAWK       CLOUDY    38  31  75 CALM      30.08S
MEDFORD        CLOUDY    37  32  81 CALM      30.08S
MERRILL        PTCLDY    36  32  86 W3        30.08S
$$

WIZ029-030-035-036-043>047-300400-
CENTRAL WISCONSIN

CITY           SKY/WX    TMP DP  RH WIND       PRES   REMARKS
WAUSAU         PTCLDY    36  32  85 CALM      30.08S
MOSINEE        PTCLDY    34  32  93 NW7       30.10S WCI  28
MARSHFIELD     CLEAR     33  30  88 CALM      30.09S
STEVENS POINT  CLEAR     28  27  94 CALM      30.10S
WAUPACA        PTCLDY    34  31  90 CALM      30.11R
WAUTOMA        CLEAR     30  28  92 CALM      30.12R
WISC RAPIDS    CLEAR     31  29  92 CALM      30.11S
CAMP DOUGLAS   PTCLDY    28  28 100 CALM      30.11S
$$

WIZ011>013-019>022-031-037>040-048>050-300400-
NORTHEAST WISCONSIN

CITY           SKY/WX    TMP DP  RH WIND       PRES   REMARKS
ANTIGO         CLOUDY    37  34  92 CALM      30.08R
SHAWANO        CLOUDY    42  34  73 CALM      30.10S
OCONTO         CLOUDY    44  35  70 W6        30.09R
STURGEON BAY   CLOUDY    46  34  61 NW8       30.09R
GREEN BAY      CLOUDY    45  36  70 W5        30.10R
MANITOWOC      CLOUDY    45  36  70 CALM      30.10S
APPLETON       PTCLDY    39  30  70 W5        30.10S
CLINTONVILLE   CLOUDY    43  34  70 W3        30.10R
OSHKOSH        CLEAR     38  32  79 SW5       30.10S WCI  34
$$

WIZ032>034-041-042-053>061-300400-
SOUTHWEST WISCONSIN

CITY           SKY/WX    TMP DP  RH WIND       PRES   REMARKS
LA CROSSE      PTCLDY    38  33  82 CALM      30.12R
SPARTA         CLEAR     29  28  96 CALM      30.12S
VIROQUA        PTCLDY    37  32  83 CALM      30.10S
BOSCOBEL       CLEAR     32  29  88 CALM      30.14R
PRAIRIE DU CHI CLEAR     34  31  88 CALM      30.13R
PLATTEVILLE    CLEAR     38  31  74 S3        30.13S
$$

WIZ056-057-062-063-064-067-068-300400-
SOUTH CENTRAL WISCONSIN

CITY           SKY/WX    TMP DP  RH WIND       PRES   REMARKS
REEDSBURG      CLEAR     33  31  94 CALM      30.12R
BARABOO/DELLS  CLEAR     34  30  85 CALM      30.11S
LONE ROCK      CLEAR     35  28  75 CALM      30.13R
MINERAL POINT  CLEAR     39  32  75 CALM      30.12S
MADISON        CLEAR     34  30  85 CALM      30.12S
MIDDLETON      CLEAR     33  31  94 CALM      30.12R
WATERTOWN      CLEAR     31  29  92 CALM      30.11S
MONROE         CLEAR     37  32  81 SW6       30.11S WCI  33
JANESVILLE     CLEAR     34  30  86 CALM      30.12S
$$

WIZ051-052-058>065-066-070>072-300400-
SOUTHEAST WISCONSIN

CITY           SKY/WX    TMP DP  RH WIND       PRES   REMARKS
MILWAUKEE      PTCLDY    41  30  65 CALM      30.13S
WAUKESHA       CLEAR     32  30  93 CALM      30.13S
MILWAUKEE/TIMM CLEAR     37  32  81 CALM      30.13S
RACINE         PTCLDY    43  32  65 W3        30.14S
BURLINGTON     CLEAR     30  29  96 CALM      30.13S
KENOSHA        CLEAR     36  31  82 CALM      30.13S
FOND DU LAC    CLEAR     33  30  88 CALM      30.11S
SHEBOYGAN      CLOUDY    43  33  68 CALM      30.11S
WEST BEND      PTCLDY    34  32  93 CALM      30.11S
JUNEAU         CLEAR     35  31  85 CALM      30.12S
$$

LSZ147-162-300400-
LAKE SUPERIOR

STATION/POSITION TIME  TEMP    WIND        PRES    WAVE
                       AIR SEA DIR/SP/G            HT/PER
                 (UTC) (F)     (DEG/KT/KT) (MB)    (FT/S)
W MID LAKE BUOY  0250   44 45  260/  8/ 10 1018.1R   1/ 4
DEVILS ISLAND    0300   44     270/  6/  8 1018.6R
PORT WING        0200   42     210/  4/  7 1018.6S
SAXON HARBOR     0200   42     230/  1/  4 1018.6S
$$

LMZ867-665-643>646-300400-
LAKE MICHIGAN

STATION/POSITION TIME  TEMP    WIND        PRES    WAVE
                       AIR SEA DIR/SP/G            HT/PER
                 (UTC) (F)     (DEG/KT/KT) (MB)    (FT/S)
CHAMBERS ISLAND  0200   46     310/  3/  4 1018.3S
N MID LAKE BUOY  0250   44 51   10/  8/ 10 1018.9R   2/ 4
NORTHPORT PIER   0200   45      60/  7/  9 1018.3R
KEWAUNEE LAKESHO 0200   46     280/  4/  5 1017.8R
SHEBOYGAN LAKESH 0300   46 50  280/  4/  5 1020.3R
PORT WASHINGTON  0240   43     270/  3/  4 1020.3F
ATWATER BUOY     0300   47     350/  2/  4 1021.1S
MILWAUKEE LAKESH 0200   46      10/  4/  5   N/A
S MID LAKE BUOY  0250   48 53  280/  6/ 10 1020.4R   2/ 5
KENOSHA   LAKESH 0300   44     270/  5/  6 1020.0S
$$

TC  - TEMPERATURE IN CELSIUS
VSB - VISIBILITY IN STATUTE MILES
WCI - WIND CHILL INDEX
HX  - HEAT INDEX




USA.gov is the U.S. government's official web portal to all federal, state and local government web resources and services.